Regional Weather Roundup
Issued by NWS Green Bay, WI

Home | Current Version | Previous Version | Graphics & Text | Print | Product List | Glossary Off
Versions: 1 2 3 4 5 6 7 8 9 10 11 12 13 14 15 16 17 18 19 20 21 22 23 24 25 26 27 28 29 30 31 32 33 34 35 36 37 38 39 40 41 42 43 44 45 46 47 48 49 50

000
ASUS43 KGRB 221700
RWRGRB

NORTH-CENTRAL AND NORTHEAST WISCONSIN REGIONAL WEATHER ROUNDUP
NATIONAL WEATHER SERVICE GREEN BAY WI
1200 PM CDT WED MAR 22 2017

WIZ005-009-010>012-018-019-221800-
NORTH CENTRAL WISCONSIN

CITY           SKY/WX    TMP DP  RH WIND       PRES   REMARKS
IRONWOOD       SUNNY     27   8  44 E6        30.55F
MANITOWISH WTR NOT AVBL
ARBOR VITAE    NOT AVBL
EAGLE RIVER    NOT AVBL
LAND O LAKES   NOT AVBL
RHINELANDER    SUNNY     27   6  41 VRB6      30.54S
PHILLIPS       SUNNY     26   7  43 S5        30.53F
ANTIGO         NOT AVBL
TOMAHAWK       NOT AVBL
MERRILL        NOT AVBL
$$

WIZ013-073-221800-
NORTHEAST WISCONSIN

CITY           SKY/WX    TMP DP  RH WIND       PRES   REMARKS
IRON MOUNTAIN  SUNNY     26   5  40 CALM      30.57S
MARINETTE        N/A    N/A N/A N/A MISG        N/A
$$

WIZ017-030-035>037-045-221800-
CENTRAL WISCONSIN

CITY           SKY/WX    TMP DP  RH WIND       PRES   REMARKS
MEDFORD        NOT AVBL
WAUSAU         SUNNY     26   7  44 CALM      30.57S
MOSINEE        SUNNY     27   9  46 VRB6      30.58S
MARSHFIELD     SUNNY     28   8  43 E8        30.55F
WISC RAPIDS    SUNNY     30   7  37 SE6       30.60F
STEVENS POINT  NOT AVBL
WAUPACA        NOT AVBL
SHAWANO        SUNNY     29  10  45 NE5       30.63S
CLINTONVILLE   SUNNY     30   7  37 S3        30.62S
WAUTOMA        SUNNY     28  11  48 CALM      30.61
$$

WIZ038-039-048-051-221800-
FOX VALLEY

CITY           SKY/WX    TMP DP  RH WIND       PRES   REMARKS
NWS GREEN BAY  SUNNY     30  17  58 VRB5      30.63S
APPLETON       SUNNY     28   9  43 VRB5      30.60S
OSHKOSH        SUNNY     27  12  53 E7        30.62S
FOND DU LAC    SUNNY     30  13  49 VRB5      30.61S
$$

WIZ022-050-052-221800-
EAST CENTRAL WISCONSIN

CITY           SKY/WX    TMP DP  RH WIND       PRES   REMARKS
EPHRAIM        NOT AVBL
WASHINGTON ISL NOT AVBL
STURGEON BAY   PTSUNNY   27  13  55 E5        30.63S
MANITOWOC      NOT AVBL
SHEBOYGAN      CLOUDY    28  17  63 NE9       30.62S
$$

LMZ563-521-522-541>543-221800-
LAKESHORE

STATION/POSITION TIME  TEMP    WIND        PRES    VSBY  WAVE
                       AIR SEA DIR/SP/G                  HT/PER
                 (UTC) (F)     (DEG/KT/KT) (MB)    (MI)  (FT/S)
SHEBOYGAN LKSHOR 1600   26     360/  9/ 11 1037.8R
KEWAUNEE LKSHORE 1630   25      30/  8/ 11 1036.6R
NORTHPORT PIER   1640   23      90/  4/  7 1036.9S
CHAMBERS ISLAND  1640   24      10/  6/  7 1036.9R
MENOMINEE LKSHOR 1630   23      10/  5/  6 1036.6R
$$




USA.gov is the U.S. government's official web portal to all federal, state and local government web resources and services.